sat.trackr.live / text

‹ back to catalog

STARLINK-30542

NORAD 58041 · 2023-156P

PAYLOAD ACTIVE UNKNOWN

§ Identity

Operator
Country
US
Launch date
2023-10-09
Launch site
AFWTR
Launch vehicle
Mass (kg)
RCS (m²)

Purposes: comms

External: N2YO · Heavens-Above · Gunter

§ Orbital elements

Epoch: 2026-05-25T03:06:39.356352Z

Period
94.11 min
Inclination
53.1609°
Eccentricity
0.0001085
Mean motion
15.30184412 rev/d
Perigee alt
474.5 km
Apogee alt
476.0 km
Semi-major
6,853.4 km
B*
2.1325e-5
RAAN
83.1735°
Arg perigee
97.1622°
Mean anomaly
262.9502°
Rev number
14,801

§ Raw data

STARLINK-305421 58041U 23156P   26145.12962218  .00000272  00000+0  21325-4 0  99912 58041  53.1609  83.1735 0001085  97.1622 262.9502 15.30184412148011

JSON: /api/v1/satellites/58041 · /tle

For live sub-satellite position, see the globe view (requires WebGL).

§ Visibility from observer

Set your observer location to see the next 7 days of passes ≥ 10°. The values pass through the URL so the page stays shareable.

No JS? Fill the form by hand. The geolocation button needs JavaScript.